TimeEST,TemperatureF,Dew PointF,Humidity,Sea Level PressureIn,VisibilityMPH,Wind Direction,Wind SpeedMPH,Gust SpeedMPH,PrecipitationIn,Events,Conditions,WindDirDegrees,DateUTC
12:06 AM,41.0,35.6,81,29.57,10.0,SW,20.7,29.9,N/A,,Overcast,220,2012-11-24 05:06:00
12:53 AM,39.0,28.9,67,29.59,10.0,SW,17.3,29.9,0.01,,Overcast,230,2012-11-24 05:53:00
1:53 AM,37.9,28.0,68,29.59,10.0,SW,13.8,19.6,N/A,,Overcast,220,2012-11-24 06:53:00
2:48 AM,33.8,30.2,87,29.57,3.0,SSW,15.0,24.2,0.00,Snow,Light Snow,210,2012-11-24 07:48:00
2:53 AM,34.0,30.9,89,29.58,4.0,SW,15.0,-,0.00,Snow,Light Snow,220,2012-11-24 07:53:00
3:01 AM,33.8,30.2,87,29.56,9.0,SSW,11.5,20.7,0.00,,Mostly Cloudy,210,2012-11-24 08:01:00
3:53 AM,34.0,30.0,85,29.56,10.0,SSW,13.8,21.9,0.00,,Partly Cloudy,210,2012-11-24 08:53:00
4:53 AM,34.0,30.0,85,29.56,10.0,SSW,11.5,-,N/A,,Overcast,210,2012-11-24 09:53:00
5:53 AM,35.1,28.9,78,29.56,10.0,SSW,15.0,21.9,N/A,,Overcast,210,2012-11-24 10:53:00
6:53 AM,35.1,27.0,72,29.57,10.0,SW,15.0,20.7,N/A,,Overcast,220,2012-11-24 11:53:00
7:25 AM,35.6,26.6,70,29.57,6.0,WSW,11.5,19.6,0.00,Snow,Light Snow,240,2012-11-24 12:25:00
7:37 AM,33.8,30.2,87,29.58,2.0,West,11.5,24.2,0.00,Snow,Light Snow,260,2012-11-24 12:37:00
7:45 AM,33.8,30.2,87,29.59,9.0,West,10.4,-,0.00,,Overcast,280,2012-11-24 12:45:00
7:53 AM,34.0,27.0,75,29.61,10.0,WNW,21.9,28.8,0.00,Snow,Light Snow,290,2012-11-24 12:53:00
8:04 AM,33.8,24.8,70,29.60,9.0,WNW,15.0,29.9,0.00,,Overcast,290,2012-11-24 13:04:00
8:53 AM,33.1,23.0,66,29.62,10.0,West,16.1,25.3,0.00,,Overcast,270,2012-11-24 13:53:00
9:53 AM,34.0,21.0,59,29.65,10.0,West,20.7,31.1,N/A,,Overcast,270,2012-11-24 14:53:00
10:53 AM,34.0,21.0,59,29.66,10.0,West,18.4,28.8,N/A,,Overcast,270,2012-11-24 15:53:00
11:53 AM,35.1,19.9,54,29.65,10.0,West,17.3,25.3,N/A,,Scattered Clouds,270,2012-11-24 16:53:00
12:53 PM,34.0,19.0,54,29.65,10.0,West,20.7,29.9,N/A,,Overcast,270,2012-11-24 17:53:00
1:53 PM,32.0,21.9,66,29.67,5.0,WNW,16.1,26.5,0.00,Snow,Light Snow,290,2012-11-24 18:53:00
1:57 PM,30.2,23.0,75,29.65,1.5,West,19.6,27.6,0.00,Snow,Light Snow,280,2012-11-24 18:57:00
2:04 PM,30.2,24.8,80,29.65,1.0,West,17.3,27.6,0.00,Snow,Light Snow,270,2012-11-24 19:04:00
2:08 PM,30.2,24.8,80,29.65,2.5,West,15.0,-,0.00,Snow,Light Snow,260,2012-11-24 19:08:00
2:15 PM,30.2,24.8,80,29.65,9.0,West,12.7,20.7,0.00,,Overcast,270,2012-11-24 19:15:00
2:53 PM,32.0,21.0,64,29.67,10.0,West,18.4,28.8,0.00,,Overcast,270,2012-11-24 19:53:00
3:53 PM,32.0,19.0,59,29.69,10.0,West,18.4,27.6,0.00,,Mostly Cloudy,280,2012-11-24 20:53:00
4:53 PM,30.9,19.0,61,29.71,10.0,West,20.7,32.2,N/A,,Mostly Cloudy,270,2012-11-24 21:53:00
5:53 PM,30.0,19.0,64,29.73,10.0,West,16.1,28.8,N/A,,Mostly Cloudy,270,2012-11-24 22:53:00
6:53 PM,30.0,19.0,64,29.74,10.0,West,21.9,34.5,N/A,,Partly Cloudy,270,2012-11-24 23:53:00
7:53 PM,30.0,18.0,61,29.76,10.0,West,18.4,28.8,N/A,,Overcast,280,2012-11-25 00:53:00
8:53 PM,30.0,18.0,61,29.77,10.0,West,23.0,28.8,N/A,,Overcast,280,2012-11-25 01:53:00
9:53 PM,28.9,18.0,64,29.78,10.0,West,15.0,24.2,N/A,,Overcast,270,2012-11-25 02:53:00
10:53 PM,28.9,16.0,58,29.78,10.0,WNW,18.4,31.1,N/A,,Overcast,290,2012-11-25 03:53:00
11:53 PM,28.0,15.1,58,29.80,10.0,West,15.0,27.6,N/A,,Overcast,270,2012-11-25 04:53:00